Istanbul, Turkey

3:31 PM +03 on December 03, 2016 (GMT +0300)
Ataturk

Weather History for LTBA - September, 2011

Change the Weather History Date:

Wednesday, September 21, 2011

  Actual Average Record
Temperature  
Mean Temperature 74 °F -  
Max Temperature 80 °F 74 °F 84 °F (2000)
Min Temperature 68 °F 61 °F 57 °F (1997)
Cooling Degree Days 9    
Growing Degree Days 24 (Base 50)    
Moisture  
Dew Point 63 °F    
Average Humidity 71    
Maximum Humidity 100    
Minimum Humidity 54    
Precipitation  
Precipitation 0.02 in - - ()
Sea Level Pressure  
Sea Level Pressure 29.85 in    
Wind  
Wind Speed 11 mph ()    
Max Wind Speed 24 mph    
Max Gust Speed 32 mph    
Visibility 6.0 miles    
Events Rain , Thunderstorm    
Averages and records for this station are not official NWS values.
T = Trace of Precipitation, MM = Missing Value Source: Averaged Metar Reports

Daily Weather History Graph

Daily Weather History Graph

Search for Another Location

Airport or City:

Trip Planner

Search our weather history database for the weather conditions in past years. The results will help you decide how hot, cold, wet, or windy it might be!

Date:

Astronomy

Sep. 21, 2011 Rise Set
Actual Time 6:50 AM EEST 7:04 PM EEST
Civil Twilight 6:23 AM EEST 7:32 PM EEST
Nautical Twilight 5:50 AM EEST 8:04 PM EEST
Astronomical Twilight 5:18 AM EEST 8:36 PM EEST
Moon No Moon Rise 3:02 PM EEST (9/21)
Length of Visible Light 13h 08m
Length of Day
12h 13m
Last Quarter, 42% of the Moon is Illuminated
Sep 21
Last Quarter
Sep 27
New
Oct 4
First Quarter
Oct 12
Full
Oct 20
Last Quarter

Hourly Weather History & Observations

Time (EEST) Temp. Heat Index Dew Point Humidity Pressure Visibility Wind Dir Wind Speed Gust Speed Precip Events Conditions
12:20 AM 71.6 °F - 59.0 °F 64% 29.95 in 6.2 mi Variable 9.2 mph - N/A   Scattered Clouds
12:50 AM 69.8 °F - 59.0 °F 68% 29.95 in 6.2 mi NE 9.2 mph - N/A   Scattered Clouds
1:20 AM 69.8 °F - 60.8 °F 73% 29.95 in 6.2 mi NE 9.2 mph - N/A   Scattered Clouds
1:50 AM 69.8 °F - 60.8 °F 73% 29.95 in 6.2 mi ENE 8.1 mph - N/A   Scattered Clouds
2:20 AM 69.8 °F - 62.6 °F 78% 29.95 in 6.2 mi ENE 6.9 mph - N/A   Scattered Clouds
2:50 AM 69.8 °F - 62.6 °F 78% 29.95 in 6.2 mi ENE 9.2 mph - N/A   Scattered Clouds
3:00 AM 69 °F - 62 °F 74% 29.94 in 6 mi ENE 9.2 mph - -   Partly Cloudy
3:20 AM 69.8 °F - 64.4 °F 83% 29.92 in 6.2 mi NE 9.2 mph - N/A   Scattered Clouds
3:50 AM 69.8 °F - 62.6 °F 78% 29.92 in 6.2 mi NE 9.2 mph - N/A   Scattered Clouds
4:20 AM 69.8 °F - 62.6 °F 78% 29.92 in 6.2 mi NNE 9.2 mph - N/A   Scattered Clouds
4:50 AM 69.8 °F - 60.8 °F 73% 29.89 in 6.2 mi NE 10.4 mph - N/A   Scattered Clouds
5:20 AM 69.8 °F - 60.8 °F 73% 29.92 in 6.2 mi NE 11.5 mph - N/A   Scattered Clouds
5:50 AM 69.8 °F - 60.8 °F 73% 29.89 in 6.2 mi NE 9.2 mph - N/A   Scattered Clouds
6:20 AM 69.8 °F - 60.8 °F 73% 29.89 in 6.2 mi ENE 9.2 mph - N/A   Scattered Clouds
6:50 AM 69.8 °F - 60.8 °F 73% 29.89 in 6.2 mi NE 11.5 mph - N/A   Scattered Clouds
7:20 AM 69.8 °F - 62.6 °F 78% 29.89 in 6.2 mi NE 10.4 mph - N/A   Scattered Clouds
7:50 AM 71.6 °F - 62.6 °F 73% 29.89 in 6.2 mi ENE 10.4 mph - N/A   Partly Cloudy
8:20 AM 71.6 °F - 60.8 °F 69% 29.89 in 6.2 mi NE 9.2 mph - N/A   Partly Cloudy
8:50 AM 71.6 °F - 60.8 °F 69% 29.89 in 6.2 mi ENE 12.7 mph - N/A   Scattered Clouds
9:00 AM 72 °F - 60 °F 58% 29.89 in 6 mi ENE 12.7 mph - -   Partly Cloudy
9:20 AM 71.6 °F - 60.8 °F 69% 29.89 in 6.2 mi NE 17.3 mph - N/A   Scattered Clouds
9:50 AM 75.2 °F - 60.8 °F 61% 29.86 in 6.2 mi Variable 12.7 mph - N/A   Scattered Clouds
10:20 AM 75.2 °F - 60.8 °F 61% 29.86 in 6.2 mi NNE 13.8 mph - N/A   Scattered Clouds
10:50 AM 75.2 °F - 60.8 °F 61% 29.86 in 6.2 mi NNE 16.1 mph - N/A   Scattered Clouds
11:20 AM 78.8 °F - 60.8 °F 54% 29.86 in 6.2 mi NE 12.7 mph - N/A   Scattered Clouds
11:50 AM 78.8 °F - 60.8 °F 54% 29.83 in 6.2 mi Variable 9.2 mph 20.7 mph N/A   Scattered Clouds
12:20 PM 77.0 °F - 62.6 °F 61% 29.83 in 6.2 mi Variable 13.8 mph - N/A   Scattered Clouds
12:50 PM 78.8 °F - 60.8 °F 54% 29.83 in 6.2 mi NNE 13.8 mph - N/A   Scattered Clouds
1:20 PM 80.6 °F 81.8 °F 62.6 °F 54% 29.83 in 6.2 mi NNE 13.8 mph - N/A   Scattered Clouds
1:50 PM 78.8 °F - 60.8 °F 54% 29.80 in 6.2 mi NNE 15.0 mph - N/A   Scattered Clouds
2:20 PM 75.2 °F - 62.6 °F 65% 29.80 in 6.2 mi NNE 19.6 mph - N/A   Scattered Clouds
2:50 PM 77.0 °F - 62.6 °F 61% 29.77 in 6.2 mi NNE 17.3 mph - N/A   Scattered Clouds
3:20 PM 75.2 °F - 62.6 °F 65% 29.77 in 6.2 mi NNE 21.9 mph - N/A   Scattered Clouds
3:50 PM 77.0 °F - 62.6 °F 61% 29.80 in 6.2 mi NNE 15.0 mph - N/A   Mostly Cloudy
4:20 PM 75.2 °F - 64.4 °F 69% 29.77 in 6.2 mi NNE 19.6 mph 31.1 mph N/A   Mostly Cloudy
4:50 PM 75.2 °F - 62.6 °F 65% 29.77 in 6.2 mi NNE 21.9 mph - N/A   Mostly Cloudy
5:20 PM 75.2 °F - 62.6 °F 65% 29.74 in 6.2 mi NNE 20.7 mph 32.2 mph N/A   Mostly Cloudy
5:50 PM 73.4 °F - 62.6 °F 69% 29.74 in 6.2 mi NE 20.7 mph - N/A   Mostly Cloudy
6:20 PM 73.4 °F - 62.6 °F 69% 29.74 in 6.2 mi NE 19.6 mph - N/A   Mostly Cloudy
6:50 PM 73.4 °F - 62.6 °F 69% 29.80 in 6.2 mi North 6.9 mph - N/A Thunderstorm Mostly Cloudy
7:20 PM 73.4 °F - 62.6 °F 69% 29.80 in 6.2 mi North 10.4 mph - N/A Thunderstorm Mostly Cloudy
7:50 PM 73.4 °F - 64.4 °F 73% 29.80 in 6.2 mi North 15.0 mph - N/A Thunderstorm Mostly Cloudy
8:20 PM 73.4 °F - 64.4 °F 73% 29.86 in 6.2 mi North 10.4 mph - N/A Rain Light Rain Showers
8:50 PM 71.6 °F - 66.2 °F 83% 29.89 in 1.9 mi NW 9.2 mph - N/A Rain , Thunderstorm Thunderstorms and Rain
9:00 PM 72 °F - 66 °F 76% 29.90 in 2 mi NW 9.2 mph - - Rain , Thunderstorm Thunderstorms and Rain
9:20 PM 69.8 °F - 69.8 °F 100% 29.77 in 4.3 mi North 24.2 mph - N/A Rain , Thunderstorm Light Thunderstorms and Rain
9:50 PM 69.8 °F - 68.0 °F 94% 29.77 in 6.2 mi North 20.7 mph - N/A Rain Light Rain Showers
10:20 PM 71.6 °F - 69.8 °F 94% 29.77 in 6.2 mi North 11.5 mph - N/A Rain Light Rain Showers
10:50 PM 71.6 °F - 69.8 °F 94% 29.80 in 6.2 mi North 12.7 mph - N/A   Mostly Cloudy
11:20 PM 73.4 °F - 69.8 °F 88% 29.80 in 6.2 mi East 8.1 mph - N/A   Mostly Cloudy
11:50 PM 71.6 °F - 69.8 °F 94% 29.83 in 6.2 mi ESE 5.8 mph - N/A   Mostly Cloudy